This demonstration page uses our WeatherBlox Daily Observations layout. Learn more.

Left ArrowRight Arrow

39.01783, -85.05884

Hourly Observations for March 11, 2017

Temp ( °F °C ) Dew Point ( °F °C ) Humidity (%) Winds ( mph kmh ) Pressure ( in mb ) Visibility ( mi km ) Precip ( " mm )
12:52 am 00:52 Partly Cloudy 26 -3.3 13 -10.6 57 57 N 10 17 30.36 1028 10 16 0.00 0.00
1:52 am 01:52 Mostly Cloudy 25 -3.9 8 -13.3 48 48 N 15 24 30.36 1028 10 16 0.00 0.00
2:52 am 02:52 Cloudy 24 -4.4 7 -13.9 48 48 N 13 20 30.38 1029 10 16 0.00 0.00
3:52 am 03:52 Cloudy 23 -5 7 -13.9 50 50 N 13 20 30.40 1029 10 16 0.00 0.00
4:52 am 04:52 Cloudy 23 -5 7 -13.9 50 50 N 9 15 30.42 1030 10 16 0.00 0.00
5:52 am 05:52 Cloudy 23 -5 7 -13.9 50 50 N 7 11 30.41 1030 10 16 0.00 0.00
6:52 am 06:52 Cloudy 23 -5 7 -13.9 50 50 N 7 11 30.43 1031 10 16 0.00 0.00
7:52 am 07:52 Mostly Cloudy 23 -5 7 -13.9 50 50 N 5 7 30.45 1031 10 16 0.00 0.00
8:52 am 08:52 Mostly Cloudy 25 -3.9 8 -13.3 48 48 NE 6 9 30.45 1031 10 16 0.00 0.00
9:52 am 09:52 Partly Cloudy 27 -2.8 8 -13.3 45 45 ENE 6 9 30.46 1031 10 16 0.00 0.00
10:52 am 10:52 Partly Cloudy 30 -1.1 9 -12.8 41 41 VRB 5 7 30.45 1031 10 16 0.00 0.00
11:52 am 11:52 Mostly Cloudy 31 -0.6 8 -13.3 38 38 VRB 5 7 30.45 1031 10 16 0.00 0.00
12:52 pm 12:52 Mostly Cloudy 33 0.6 8 -13.3 35 35 N 9 15 30.43 1031 10 16 0.00 0.00
1:52 pm 13:52 Mostly Cloudy 34 1.1 8 -13.3 34 34 VRB 5 7 30.41 1030 10 16 0.00 0.00
2:52 pm 14:52 Mostly Cloudy 36 2.2 10 -12.2 34 34 VRB 3 6 30.40 1030 10 16 0.00 0.00
3:52 pm 15:52 Mostly Cloudy 36 2.2 10 -12.2 34 34 W 6 9 30.40 1029 10 16 0.00 0.00
4:52 pm 16:52 Cloudy 35 1.7 8 -13.3 32 32 Calm 30.37 1029 10 16 0.00 0.00
5:52 pm 17:52 Cloudy 35 1.7 10 -12.2 35 35 N 9 15 30.36 1028 10 16 0.00 0.00
6:52 pm 18:52 Cloudy 33 0.6 11 -11.7 40 40 NNW 8 13 30.38 1029 10 16 0.00 0.00
7:52 pm 19:52 Cloudy 31 -0.6 11 -11.7 43 43 N 8 13 30.39 1029 10 16 0.00 0.00
8:52 pm 20:52 Cloudy 30 -1.1 12 -11.1 47 47 NNW 8 13 30.39 1029 10 16 0.00 0.00
9:52 pm 21:52 Cloudy 29 -1.7 12 -11.1 49 49 NNW 8 13 30.41 1030 10 16 0.00 0.00
10:52 pm 22:52 Cloudy 28 -2.2 13 -10.6 53 53 N 8 13 30.41 1030 10 16 0.00 0.00
11:52 pm 23:52 Partly Cloudy 27 -2.8 13 -10.6 55 55 N 8 13 30.41 1030 10 16 0.00 0.00

Powered by AerisWeather